This is the latest recevied weather packets stored in our database for station/object KO6MEX-13. If no packets are shown the sender has not sent any weather packets the latest 10 day(s).
| Time | Temp. | Humidity | Pressure | Rain* | Wind** | Luminosity | Snow |
|---|---|---|---|---|---|---|---|
| 1777936438 | 17.78° C | 61% | 1018.2 hPa | 0 mm | - | 557 W/m² | - |
| 1777936135 | 17.78° C | 62% | 1018.3 hPa | 0 mm | - | 568 W/m² | - |
| 1777935832 | 17.78° C | 60% | 1018.4 hPa | 0 mm | - | 578 W/m² | - |
| 1777935531 | 17.22° C | 61% | 1018.5 hPa | 0 mm | - | 589 W/m² | - |
| 1777935227 | 17.22° C | 64% | 1018.7 hPa | 0 mm | - | 596 W/m² | - |
| 1777934924 | 17.22° C | 67% | 1018.6 hPa | 0 mm | - | 598 W/m² | - |
| 1777934621 | 17.22° C | 66% | 1018.8 hPa | 0 mm | - | 606 W/m² | - |
| 1777934318 | 17.78° C | 64% | 1018.6 hPa | 0 mm | - | 614 W/m² | - |
| 1777934013 | 17.22° C | 63% | 1018.6 hPa | 0 mm | - | 616 W/m² | - |
| 1777933710 | 17.22° C | 62% | 1018.8 hPa | 0 mm | - | 633 W/m² | - |
| 1777933407 | 17.78° C | 61% | 1018.7 hPa | 0 mm | - | 577 W/m² | - |
| 1777933106 | 17.22° C | 62% | 1018.7 hPa | 0 mm | - | 577 W/m² | - |
| 1777932802 | 17.78° C | 58% | 1018.9 hPa | 0 mm | - | 620 W/m² | - |
| 1777932499 | 17.78° C | 60% | 1018.6 hPa | 0 mm | - | 669 W/m² | - |
| 1777932195 | 17.78° C | 60% | 1018.7 hPa | 0 mm | - | 674 W/m² | - |
| 1777931893 | 17.78° C | 58% | 1018.7 hPa | 0 mm | - | 673 W/m² | - |
| 1777931589 | 17.78° C | 55% | 1018.9 hPa | 0 mm | - | 677 W/m² | - |
| 1777931285 | 17.78° C | 56% | 1018.9 hPa | 0 mm | - | 676 W/m² | - |
| 1777930982 | 18.33° C | 55% | 1019 hPa | 0 mm | - | 695 W/m² | - |
| 1777930679 | 18.89° C | 55% | 1018.9 hPa | 0 mm | - | 719 W/m² | - |
| 1777930375 | 19.44° C | 54% | 1019 hPa | 0 mm | - | 412 W/m² | - |
| 1777930072 | 18.33° C | 57% | 1019 hPa | 0 mm | - | 674 W/m² | - |
| 1777929768 | 18.89° C | 56% | 1019.2 hPa | 0 mm | - | 844 W/m² | - |
| 1777929466 | 18.89° C | 53% | 1019 hPa | 0 mm | - | 755 W/m² | - |
| 1777929162 | 18.89° C | 52% | 1019 hPa | 0 mm | - | 918 W/m² | - |
* Rain latest hour (hover to see other rain measurements)
** Current wind speed in m/s (hover to see current wind gust speed)